STARLINK-3107 (49171 NORAD) Tracking and Keplerian Element Data

This shows tracking and keplerian element data for the satellite.

Feedback or suggestion? Click here.




ElementValue
Catalog49171
NameSTARLINK-3107
Epoch Orbit373
Epoch Day287.91667824
Epoch Year2021
RAAN40.2566
Inclination70.0011
Eccentricity0.0003725
Argument of Perigee286.2448
Mean Anonmoly212.5821
Mean Motion15.69736891
Decay Rate-0.00044092
L11 49171U 21082AT 21287.91667824 -.00044092 00000-0 -36967-3 0 9993
L22 49171 70.0011 40.2566 0003725 286.2448 212.5821 15.69736891 3736

Live tracking and technical data element details for STARLINK-3107 (NORAD 49171). STARLINK-3107 can be tracked NOW for your location showing map with azimuth and elevation plus other details from your city location.

Track the satellite on the map from your city or location and see movement details for azimuth, elevation, latitude, longitude, range, height, and movement on the map or in text.







IsCatalogInMostPopularTable: catalog: 49171, numindb: 7
Update: records affected: 1



GetName: 49171 STARLINK-3107

Hit Count: updated at: Sun, 17 Oct 2021 09:04:54 GMT